Change the Weather History Date:

Thursday, November 6, 2014

  Actual Average Record
Temperature  
Mean Temperature 38 °F -  
Max Temperature 41 °F 45 °F 67 °F (1975)
Min Temperature 35 °F 32 °F 6 °F (1951)
Degree Days  
Heating Degree Days 27    
Moisture  
Dew Point 30 °F    
Average Humidity 74    
Maximum Humidity 93    
Minimum Humidity 56    
Precipitation  
Precipitation 0.00 in - - ()
Sea Level Pressure  
Sea Level Pressure 30.01 in    
Wind  
Wind Speed 16 mph (North)    
Max Wind Speed 29 mph    
Max Gust Speed 37 mph    
Visibility 10 miles    
Events      
Averages and records for this station are not official NWS values.
T = Trace of Precipitation, MM = Missing Value Source: NWS Daily Summary

Daily Weather History Graph

Daily Weather History Graph

Search for Another Location

Airport or City:

Trip Planner

Search our weather history database for the weather conditions in past years. The results will help you decide how hot, cold, wet, or windy it might be!

Date:

Astronomy

Nov. 06, 2014 Rise Set
Actual Time 6:34 AM CST 4:31 PM CST
Civil Twilight 6:03 AM CST 5:02 PM CST
Nautical Twilight 5:28 AM CST 5:37 PM CST
Astronomical Twilight 4:54 AM CST 6:11 PM CST
Moon 4:39 PM CST (11/6) 6:04 AM CST (11/6)
Length of Visible Light 10h 58m
Length of Day
9h 56m
Full, 100% of the Moon is Illuminated
Nov 6
Full
Nov 6
Full
Nov 14
Last Quarter
Nov 22
New
Nov 29
First Quarter

Hourly Weather History & Observations

Time (CST) Temp. Windchill Dew Point Humidity Pressure Visibility Wind Dir Wind Speed Gust Speed Precip Events Conditions
12:15 AM 41.0 °F 34.7 °F 35.6 °F 81% 29.86 in 10.0 mi ENE 10.4 mph 17.3 mph N/A   Overcast
12:35 AM 39.2 °F 32.0 °F 37.4 °F 93% 29.85 in 10.0 mi East 11.5 mph - N/A   Overcast
12:55 AM 39.2 °F 32.5 °F 35.6 °F 87% 29.84 in 10.0 mi ENE 10.4 mph 16.1 mph N/A   Overcast
1:15 AM 39.2 °F 31.6 °F 35.6 °F 87% 29.83 in 10.0 mi ENE 12.7 mph 16.1 mph N/A   Overcast
1:35 AM 39.2 °F 31.6 °F 35.6 °F 87% 29.82 in 10.0 mi ENE 12.7 mph 20.7 mph N/A   Overcast
1:55 AM 39.2 °F 31.6 °F 35.6 °F 87% 29.82 in 9.0 mi ENE 12.7 mph 19.6 mph N/A   Overcast
2:15 AM 39.2 °F 31.2 °F 35.6 °F 87% 29.82 in 8.0 mi NE 13.8 mph 19.6 mph N/A   Overcast
2:35 AM 39.2 °F 30.8 °F 35.6 °F 87% 29.82 in 10.0 mi NE 15.0 mph 19.6 mph N/A   Overcast
2:55 AM 39.2 °F 31.6 °F 35.6 °F 87% 29.82 in 10.0 mi NNE 12.7 mph 19.6 mph N/A   Overcast
3:15 AM 39.2 °F 30.2 °F 35.6 °F 87% 29.82 in 10.0 mi NNE 17.3 mph 26.5 mph N/A   Overcast
3:35 AM 39.2 °F 31.6 °F 35.6 °F 87% 29.82 in 10.0 mi NNE 12.7 mph - N/A   Overcast
3:55 AM 39.2 °F 29.8 °F 35.6 °F 87% 29.82 in 10.0 mi NNE 18.4 mph - N/A   Overcast
4:15 AM 39.2 °F 29.6 °F 35.6 °F 87% 29.83 in 8.0 mi NNE 19.6 mph 26.5 mph N/A   Overcast
4:35 AM 39.2 °F 29.8 °F 33.8 °F 81% 29.84 in 8.0 mi NNE 18.4 mph 28.8 mph N/A   Overcast
4:55 AM 37.4 °F 26.9 °F 33.8 °F 87% 29.85 in 7.0 mi North 20.7 mph 27.6 mph N/A   Overcast
5:15 AM 37.4 °F 27.2 °F 33.8 °F 87% 29.86 in 8.0 mi NNE 19.6 mph 31.1 mph N/A   Overcast
5:35 AM 37.4 °F 26.9 °F 33.8 °F 87% 29.86 in 10.0 mi NNE 20.7 mph 27.6 mph N/A   Overcast
5:55 AM 37.4 °F 28.2 °F 33.8 °F 87% 29.88 in 10.0 mi NNE 16.1 mph 29.9 mph N/A   Overcast
6:15 AM 37.4 °F 27.2 °F 33.8 °F 87% 29.89 in 10.0 mi NNE 19.6 mph 23.0 mph N/A   Overcast
6:35 AM 37.4 °F 27.5 °F 32.0 °F 81% 29.90 in 10.0 mi NNE 18.4 mph 28.8 mph N/A   Overcast
6:55 AM 37.4 °F 27.2 °F 33.8 °F 87% 29.91 in 8.0 mi NNE 19.6 mph 26.5 mph N/A   Overcast
7:15 AM 37.4 °F 28.2 °F 32.0 °F 81% 29.92 in 10.0 mi NNE 16.1 mph 27.6 mph N/A   Overcast
7:35 AM 37.4 °F 28.5 °F 32.0 °F 81% 29.93 in 10.0 mi NNE 15.0 mph - N/A   Overcast
7:55 AM 37.4 °F 27.2 °F 33.8 °F 87% 29.94 in 10.0 mi NNE 19.6 mph 26.5 mph N/A   Overcast
8:15 AM 37.4 °F 26.4 °F 32.0 °F 81% 29.95 in 10.0 mi North 23.0 mph 27.6 mph N/A   Overcast
8:55 AM 37.4 °F 26.9 °F 32.0 °F 81% 29.96 in 10.0 mi North 20.7 mph 28.8 mph N/A   Mostly Cloudy
9:15 AM 37.4 °F 25.2 °F 32.0 °F 81% 29.97 in 8.0 mi North 28.8 mph 34.5 mph N/A   Overcast
9:35 AM 37.4 °F 26.9 °F 33.8 °F 87% 29.98 in 10.0 mi North 20.7 mph 35.7 mph N/A   Overcast
9:55 AM 37.4 °F 26.9 °F 32.0 °F 81% 29.99 in 9.0 mi North 20.7 mph 29.9 mph N/A   Overcast
10:15 AM 37.4 °F 25.9 °F 32.0 °F 81% 29.99 in 10.0 mi North 25.3 mph 34.5 mph N/A   Overcast
10:35 AM 37.4 °F 26.1 °F 32.0 °F 81% 30.00 in 8.0 mi North 24.2 mph 36.8 mph N/A   Overcast
10:55 AM 37.4 °F 26.6 °F 32.0 °F 81% 30.01 in 8.0 mi North 21.9 mph 33.4 mph N/A   Overcast
11:15 AM 37.4 °F 26.1 °F 30.2 °F 75% 30.01 in 10.0 mi North 24.2 mph 33.4 mph N/A   Overcast
11:35 AM 37.4 °F 26.4 °F 30.2 °F 75% 30.01 in 10.0 mi North 23.0 mph 32.2 mph N/A   Overcast
11:55 AM 37.4 °F 27.2 °F 30.2 °F 75% 30.02 in 10.0 mi North 19.6 mph 28.8 mph N/A   Overcast
12:15 PM 37.4 °F 26.6 °F 30.2 °F 75% 30.03 in 10.0 mi North 21.9 mph 32.2 mph N/A   Overcast
12:35 PM 37.4 °F 26.4 °F 30.2 °F 75% 30.03 in 10.0 mi North 23.0 mph 28.8 mph N/A   Overcast
12:55 PM 37.4 °F 26.6 °F 28.4 °F 70% 30.04 in 10.0 mi North 21.9 mph 28.8 mph N/A   Overcast
1:15 PM 37.4 °F 26.4 °F 28.4 °F 70% 30.04 in 10.0 mi NNW 23.0 mph 31.1 mph N/A   Overcast
1:35 PM 37.4 °F 27.5 °F 28.4 °F 70% 30.06 in 10.0 mi NNW 18.4 mph 28.8 mph N/A   Overcast
1:55 PM 37.4 °F 26.9 °F 28.4 °F 70% 30.06 in 10.0 mi North 20.7 mph 28.8 mph N/A   Overcast
2:15 PM 37.4 °F 25.9 °F 28.4 °F 70% 30.06 in 10.0 mi North 25.3 mph 31.1 mph N/A   Overcast
2:35 PM 37.4 °F 27.2 °F 26.6 °F 65% 30.08 in 10.0 mi North 19.6 mph 27.6 mph N/A   Overcast
2:55 PM 37.4 °F 26.4 °F 24.8 °F 60% 30.08 in 10.0 mi North 23.0 mph 28.8 mph N/A   Overcast
3:15 PM 37.4 °F 26.9 °F 26.6 °F 65% 30.09 in 10.0 mi North 20.7 mph 27.6 mph N/A   Overcast
3:35 PM 37.4 °F 27.5 °F 26.6 °F 65% 30.10 in 10.0 mi NNW 18.4 mph 21.9 mph N/A   Overcast
3:55 PM 37.4 °F 28.5 °F 26.6 °F 65% 30.11 in 10.0 mi NNW 15.0 mph 23.0 mph N/A   Overcast
4:15 PM 37.4 °F 27.5 °F 26.6 °F 65% 30.11 in 10.0 mi NW 18.4 mph - N/A   Overcast
4:35 PM 35.6 °F 25.5 °F 28.4 °F 75% 30.13 in 10.0 mi NNW 17.3 mph 23.0 mph N/A   Overcast
4:55 PM 35.6 °F 25.5 °F 28.4 °F 75% 30.14 in 10.0 mi NNW 17.3 mph 25.3 mph N/A   Overcast
5:15 PM 37.4 °F 27.5 °F 26.6 °F 65% 30.14 in 10.0 mi NNW 18.4 mph 29.9 mph N/A   Overcast
5:35 PM 37.4 °F 27.5 °F 24.8 °F 60% 30.14 in 10.0 mi NNW 18.4 mph 26.5 mph N/A   Overcast
5:55 PM 37.4 °F 27.5 °F 24.8 °F 60% 30.15 in 10.0 mi NNW 18.4 mph 24.2 mph N/A   Overcast
6:15 PM 37.4 °F 28.2 °F 23.0 °F 56% 30.16 in 10.0 mi North 16.1 mph 26.5 mph N/A   Overcast
6:35 PM 37.4 °F 27.8 °F 23.0 °F 56% 30.17 in 10.0 mi North 17.3 mph 26.5 mph N/A   Overcast
6:55 PM 37.4 °F 27.5 °F 23.0 °F 56% 30.17 in 10.0 mi North 18.4 mph 25.3 mph N/A   Overcast
7:35 PM 37.4 °F 27.2 °F 23.0 °F 56% 30.17 in 10.0 mi North 19.6 mph 24.2 mph N/A   Overcast
7:55 PM 37.4 °F 30.8 °F 24.8 °F 60% 30.17 in 10.0 mi NNW 9.2 mph - N/A   Overcast
8:15 PM 37.4 °F 29.8 °F 24.8 °F 60% 30.17 in 10.0 mi NW 11.5 mph - N/A   Overcast
8:35 PM 37.4 °F 32.1 °F 24.8 °F 60% 30.16 in 10.0 mi NW 6.9 mph - N/A   Overcast
8:55 PM 37.4 °F 31.4 °F 24.8 °F 60% 30.16 in 10.0 mi NW 8.1 mph - N/A   Overcast
9:15 PM 37.4 °F 30.8 °F 24.8 °F 60% 30.16 in 10.0 mi NW 9.2 mph - N/A   Overcast
9:35 PM 37.4 °F 30.3 °F 26.6 °F 65% 30.15 in 10.0 mi NW 10.4 mph 17.3 mph N/A   Overcast
9:55 PM 37.4 °F 31.4 °F 26.6 °F 65% 30.16 in 10.0 mi WNW 8.1 mph - N/A   Overcast
10:15 PM 37.4 °F 30.3 °F 26.6 °F 65% 30.15 in 10.0 mi NW 10.4 mph - N/A   Overcast
10:35 PM 37.4 °F 32.8 °F 26.6 °F 65% 30.15 in 10.0 mi NW 5.8 mph - N/A   Overcast
10:55 PM 37.4 °F 31.4 °F 26.6 °F 65% 30.15 in 10.0 mi NW 8.1 mph - N/A   Mostly Cloudy
11:15 PM 37.4 °F 30.8 °F 26.6 °F 65% 30.14 in 10.0 mi WNW 9.2 mph - N/A   Clear
11:35 PM 37.4 °F 30.8 °F 26.6 °F 65% 30.15 in 10.0 mi NW 9.2 mph - N/A   Mostly Cloudy
11:55 PM 35.6 °F 29.2 °F 26.6 °F 70% 30.14 in 10.0 mi NW 8.1 mph - N/A   Overcast